Regional Weather Roundup
Issued by NWS Sterling, VA

Home | Current Version | Previous Version | Graphics & Text | Print | Product List | Glossary On
Versions: 1 2 3 4 5 6 7 8 9 10 11 12 13 14 15 16 17 18 19 20 21 22 23 24 25 26 27 28 29 30 31 32 33 34 35 36 37 38 39 40 41 42 43 44 45 46 47 48 49 50
000
ASUS41 KLWX 201011
RWRLWX

REGIONAL WEATHER ROUNDUP
NATIONAL WEATHER SERVICE BALTIMORE MD/WASHINGTON DC
600 AM EDT FRI OCT 20 2017

Note: "FAIR" indicates few or no clouds below 12,000 feet
with no significant weather and/or obstructions to visibility.
 TC=TEMPERATURE CELSIUS

 * =Non NWS site. Station does not report precipitation (e.g. rain,
    snow, etc.), thunder, or fog.

DCZ001-MDZ009-015-VAZ040>042-051-053>054-201100-
WASHINGTON METRO

CITY           SKY/WX    TMP DP  RH WIND       PRES   REMARKS
WASHINGTON NAT FAIR      56  53  90 CALM      30.19
DULLES         FAIR      47  46  97 CALM      30.20
ANDREWS AFB    FAIR      53  45  75 NW6       30.18
FT BELVOIR     FAIR      46  45  96 CALM      30.19
QUANTICO       FAIR      50  49  96 NW8       30.21
COLLEGE PARK*  FAIR      47  46  95 CALM      30.18R
LEESBURG*      FAIR      50  46  87 CALM      30.21R
MANASSAS*      FAIR      43  42  97 CALM      30.21
GAITHERSBURG*  FAIR      48  46  93 CALM      30.21

$$

MDZ006>007-011-014-201100-
BALTIMORE METRO

CITY           SKY/WX    TMP DP  RH WIND       PRES   REMARKS
BWI AIRPORT    FAIR      51  47  86 W6        30.18
MD SCIENCE CTR   N/A     65  45  48 MISG      30.18
MARTIN STATE   PTCLDY    52  52 100 CALM      30.19R
ANNAPOLIS      FAIR      57  50  77 W3        30.17
FORT MEADE*    FAIR      45  43  93 CALM      30.20R

$$

MDZ012-015-019>023-201100-
MARYLAND EASTERN SHORE

CITY           SKY/WX    TMP DP  RH WIND       PRES   REMARKS
OCEAN CITY     FAIR      54  53  97 NW6       30.17  FOG
SALISBURY      FAIR      47  45  93 CALM      30.17R
CAMBRIDGE*     CLEAR     46  46 100 CALM      30.17R
EASTON*        MOCLDY    52  50  93 CALM      30.21R

$$

MDZ017>025-201100-
SOUTHERN MARYLAND

CITY           SKY/WX    TMP DP  RH WIND       PRES   REMARKS
PATUXENT RIVER FAIR      49  48  97 N6        30.18
ST INIGOES     FAIR      49  48  97 CALM      30.18
LEONARDTOWN*   NOT AVBL

$$

MDZ003>005-201100-
NORTH CENTRAL MARYLAND

CITY           SKY/WX    TMP DP  RH WIND       PRES   REMARKS
FREDERICK*     FAIR      46  46 100 CALM      30.23R
HAGERSTOWN APT FAIR      61  45  55 W8        30.20
WESTMINSTER*   FAIR      57  46  67 W5        30.19R

$$

MDZ501>502-201100-
WESTERN MARYLAND

CITY           SKY/WX    TMP DP  RH WIND       PRES   REMARKS
OAKLAND*       FAIR      50  43  76 W8        30.23R
CUMBERLAND*    FAIR      46  45  93 CALM      30.27R

$$

VAZ025>031-201100-
SHENANDOAH VALLEY

CITY           SKY/WX    TMP DP  RH WIND       PRES   REMARKS
WINCHESTER*    FAIR      46  41  81 W3        30.21R
FRONT ROYAL*   FAIR      50  43  76 MISG      30.21R
LURAY*         FAIR      45  43  93 CALM      30.24R
NEW MARKET*    FAIR      43  40  90 CALM      30.24R
STAUNTON*      FAIR      39  38  95 CALM      30.27R
WAYNESBORO*    FAIR      45  42  89 CALM      30.25R

$$

WVZ021-048>050-054>055-201100-
EASTERN WEST VIRGINIA PANHANDLE

CITY           SKY/WX    TMP DP  RH WIND       PRES   REMARKS
MARTINSBURG    FAIR      50  44  80 S3        30.20
PETERSBURG*    FAIR      40  38  94 CALM      30.25R

$$

VAZ036>039-050-201100-
CENTRAL FOOTHILLS

CITY           SKY/WX    TMP DP  RH WIND       PRES   REMARKS
CHARLOTTESVILL FAIR      50  45  83 S5        30.21
CULPEPER*      FAIR      43  42  95 CALM      30.22R
ORANGE*        FAIR      43  43 100 CALM      30.21R
GORDONSVILLE*  FAIR      44  44 100 CALM      30.20R
WARRENTON*     FAIR      42  39  90 CALM      30.20R

$$

VAZ055>057-201100-
NORTH AND CENTRAL PIEDMONT

CITY           SKY/WX    TMP DP  RH WIND       PRES   REMARKS
FREDERICKSBRG* FAIR      46  46 100 CALM      30.19R
STAFFORD*      FAIR      42  42 100 CALM      30.24R

$$

NCZ024-NYZ072-PAZ021-071-VAZ022-071-201100-
OTHER REGIONAL OBSERVATIONS

CITY           SKY/WX    TMP DP  RH WIND       PRES   REMARKS
NEW YORK CITY  FAIR      58  46  64 VRB3      30.13
PHILADELPHIA   FAIR      59  46  62 W9        30.15
PITTSBURGH     FAIR      51  47  86 CALM      30.23
ROANOKE        FAIR      51  43  74 NW7       30.27
RICHMOND       FAIR      47  44  90 CALM      30.20
RALEIGH        FAIR      46  45  96 CALM      30.23

$$

ANZ530>537-201100-
MARINE OBSERVATIONS

STATION/POSITION TIME  TEMP    WIND        PRES
                       AIR SEA DIR/SP/G
                 (UTC) (F)     (DEG/KT/KT) (MB)
THOMAS PT LIGHT  1000   62 67  300/ 13/ 14   N/A
BALT KEY BRIDGE  0942   62     280/  5/  6 1021.6R
COVE POINT       0942   67     350/ 13/ 15 1022.3R
LEWISETTA        0942   55 65  270/  5/  6 1021.9R
SOLOMONS ISLAND  0942   60 69  360/  4/  5 1021.4R
PINEY POINT      0936          270/  5/  7   N/A

$$




USA.gov is the U.S. government's official web portal to all federal, state and local government web resources and services.